Weather History for Alma, GA

Change the Weather History Date:

Friday, October 12, 2012

  Actual Average Record
Temperature  
Mean Temperature 71 °F 70 °F  
Max Temperature 86 °F 80 °F 91 °F (2009)
Min Temperature 55 °F 59 °F 41 °F (1951)
Degree Days  
Heating Degree Days 0 1  
Month to date heating degree days 0 7  
Since 1 July heating degree days 0 9  
Cooling Degree Days 6 6  
Month to date cooling degree days 102 84  
Year to date cooling degree days 2589 2354  
Growing Degree Days 20 (Base 50)    
Moisture  
Dew Point 64 °F    
Average Humidity 69    
Maximum Humidity 93    
Minimum Humidity 44    
Precipitation  
Precipitation 0.00 in 0.10 in 2.11 in (1994)
Month to date precipitation 0.26 1.24  
Year to date precipitation 33.24 39.09  
Snow  
Snow 0.00 in 0.00 in 0.00 in ()
Month to date snowfall 0.0 0.0  
Since 1 July snowfall 0.0 0.0  
Since 1 September snowfall 0.0 0.0  
Snow Depth 0.00 in    
Sea Level Pressure  
Sea Level Pressure 30.19 in    
Wind  
Wind Speed 2 mph (NNW)    
Max Wind Speed 12 mph    
Max Gust Speed 15 mph    
Visibility 4 miles    
Events      
T = Trace of Precipitation, MM = Missing Value Source: NWS Daily Summary

Daily Weather History Graph

Daily Weather History Graph

Search for Another Location

Airport:

Trip Planner

Search our weather history database for the weather conditions in past years. The results will help you decide how hot, cold, wet, or windy it might be!

Date:

Astronomy

Oct. 12, 2012 Rise Set
Actual Time 7:31 AM EDT 7:00 PM EDT
Civil Twilight 7:06 AM EDT 7:25 PM EDT
Nautical Twilight 6:38 AM EDT 7:53 PM EDT
Astronomical Twilight 6:10 AM EDT 8:21 PM EDT
Moon 4:23 AM EDT (10/12) 5:01 PM EDT (10/12)
Length of Visible Light 12h 18m
Length of Day
11h 29m
Waning Crescent, 11% of the Moon is Illuminated
Oct 12
Waning Crescent
Oct 15
New
Oct 21
First Quarter
Oct 29
Full
Nov 6
Last Quarter

Hourly Weather History & Observations

Time (EDT) Temp. Heat Index Dew Point Humidity Pressure Visibility Wind Dir Wind Speed Gust Speed Precip Events Conditions
12:53 AM 57.9 °F - - N/A% 30.22 in 5.0 mi Calm Calm - N/A   Haze
1:53 AM 57.0 °F - - N/A% 30.21 in 4.0 mi Calm Calm - N/A   Haze
2:53 AM 57.0 °F - - N/A% 30.20 in 4.0 mi Calm Calm - N/A   Haze
3:09 AM 55.4 °F - - N/A% 30.20 in 2.0 mi Calm Calm - N/A   Clear
3:47 AM 57.2 °F - - N/A% 30.19 in 3.0 mi Calm Calm - N/A   Clear
4:05 AM 55.4 °F - - N/A% 30.19 in 1.8 mi Calm Calm - N/A   Clear
4:14 AM 55.4 °F - - N/A% 30.19 in 0.8 mi Calm Calm - N/A   Clear
4:23 AM 55.4 °F - - N/A% 30.19 in 1.8 mi Calm Calm - N/A   Clear
4:31 AM 55.4 °F - - N/A% 30.19 in 3.0 mi Calm Calm - N/A   Clear
4:46 AM 55.4 °F - - N/A% 30.18 in 1.5 mi Calm Calm - N/A   Clear
4:53 AM 55.0 °F - - N/A% 30.18 in 0.8 mi Calm Calm - N/A   Clear
5:04 AM 55.4 °F - - N/A% 30.18 in 1.5 mi Calm Calm - N/A   Clear
5:32 AM 55.4 °F - - N/A% 30.19 in 3.0 mi Calm Calm - N/A   Clear
5:53 AM 55.0 °F - - N/A% 30.19 in 1.8 mi Calm Calm - N/A   Clear
6:16 AM 55.4 °F - - N/A% 30.20 in 2.0 mi Calm Calm - N/A   Clear
6:24 AM 55.4 °F - - N/A% 30.20 in 5.0 mi Calm Calm - N/A   Haze
6:29 AM 55.4 °F - - N/A% 30.21 in 1.8 mi Calm Calm - N/A   Clear
6:53 AM 55.0 °F - - N/A% 30.21 in 1.5 mi Calm Calm - N/A   Clear
7:13 AM 55.4 °F - - N/A% 30.22 in 2.0 mi Calm Calm - N/A   Clear
7:40 AM 55.4 °F - - N/A% 30.22 in 1.2 mi Calm Calm - N/A   Clear
7:53 AM 55.9 °F - - N/A% 30.22 in 1.5 mi Calm Calm - N/A   Clear
8:27 AM 60.8 °F - - N/A% 30.23 in 2.0 mi Calm Calm - N/A   Clear
8:53 AM 63.0 °F - - N/A% 30.24 in 3.0 mi Calm Calm - N/A   Clear
9:53 AM 69.1 °F - 66.9 °F 93% 30.25 in 7.0 mi Calm Calm - N/A   Clear
10:53 AM 75.9 °F - 69.1 °F 79% 30.25 in 10.0 mi Variable 4.6 mph - N/A   Clear
1:53 PM 82.9 °F 83.2 °F 60.1 °F 46% 30.19 in 10.0 mi Variable 4.6 mph - N/A   Clear
2:53 PM 84.0 °F 84.4 °F 61.0 °F 46% 30.16 in 10.0 mi NNW 4.6 mph - N/A   Clear
3:53 PM 84.9 °F 85.4 °F 62.1 °F 46% 30.14 in 10.0 mi WNW 9.2 mph - N/A   Clear
4:53 PM 84.9 °F 85.4 °F 62.1 °F 46% 30.14 in 10.0 mi North 8.1 mph - N/A   Partly Cloudy
5:53 PM 84.0 °F 84.5 °F 62.1 °F 47% 30.14 in 10.0 mi North 5.8 mph - N/A   Scattered Clouds
6:53 PM 75.9 °F - 66.0 °F 71% 30.15 in 9.0 mi Calm Calm - N/A   Clear
7:53 PM 72.0 °F - 66.0 °F 81% 30.16 in 9.0 mi Calm Calm - N/A   Clear
8:53 PM 69.1 °F - 64.9 °F 87% 30.17 in 7.0 mi Calm Calm - N/A   Clear
9:53 PM 66.9 °F - 64.0 °F 90% 30.19 in 6.0 mi Calm Calm - N/A   Clear
10:53 PM 68.0 °F - 64.0 °F 87% 30.21 in 4.0 mi NW 3.5 mph - N/A   Clear
11:53 PM 68.0 °F - 62.1 °F 81% 30.21 in 6.0 mi Calm Calm - N/A   Haze